Location: Newark
(42.7133°N, 87.7910°W)
Time: 22:50:40
(UTC+00:00)

Vanguard 3 - Visible Passes

Search period start: 22 September 2019 00:00
Search period end: 02 October 2019 00:00
Orbit: 508 x 3263 km, 33.4° (Epoch: 21 September)

Date Brightness Start Highest point End Pass type
(mag) Time Alt. Az. Time Alt. Az. Time Alt. Az.
22 Sep 10.9 10:35:13 10° SSE 10:42:40 18° SE 10:52:06 10° E visible
24 Sep 10.7 10:18:12 10° S 10:25:30 19° SE 10:35:05 10° E visible
25 Sep 10.4 11:12:40 10° SSW 11:22:27 34° SE 11:36:56 10° E visible
26 Sep 10.4 10:01:26 10° S 10:08:26 20° SE 10:17:57 10° E visible
27 Sep 10.2 10:56:18 10° SSW 11:05:24 35° SE 11:19:25 10° E visible
28 Sep 10.2 09:44:54 10° S 09:51:29 21° SE 10:00:45 10° E visible
29 Sep 10.0 10:40:04 10° SSW 10:48:28 36° SSE 11:01:53 10° E visible
30 Sep 10.0 09:28:40 11° S 09:34:41 22° SE 09:43:33 10° E visible
01 Oct 9.8 10:23:57 10° SSW 10:31:43 37° SSE 10:44:21 10° E visible
